EW5448 Weather Reports


Display with metric or nautical units.
time (UTC)temp
F
wind
direction
speed
MPH
gust
MPH
rain 1hr
in
rain 24hr
in
rain mn
in
humidity
%
barometer
mb
20260509180036 96 259 0.0 6.0 0.00 0.00 0.00 17 993.6
20260509174536 96 109 0.0 5.0 0.00 0.00 0.00 15 993.8
20260509173032 95 185 0.0 4.0 0.00 0.00 0.00 16 993.9
20260509171530 94 113 1.0 5.0 0.00 0.00 0.00 16 994.0
20260509170030 93 215 1.0 5.0 0.00 0.00 0.00 18 994.1
20260509164523 91 158 0.0 3.0 0.00 0.00 0.00 19 994.1
20260509163023 89 113 0.0 2.0 0.00 0.00 0.00 17 994.1
20260509161521 88 263 0.0 4.0 0.00 0.00 0.00 18 994.2
20260509160020 90 149 0.0 0.0 0.00 0.00 0.00 16 994.2
20260509154518 87 150 0.0 1.0 0.00 0.00 0.00 17 994.2
20260509153020 86 229 0.0 2.0 0.00 0.00 0.00 18 994.2
20260509151516 85 9 0.0 1.0 0.00 0.00 0.00 19 994.3
20260509150015 86 227 0.0 0.0 0.00 0.00 0.00 18 994.3
20260509144514 83 78 0.0 1.0 0.00 0.00 0.00 19 994.2
20260509143013 80 86 0.0 1.0 0.00 0.00 0.00 21 994.1
20260509141514 79 86 0.0 1.0 0.00 0.00 0.00 24 994.0
20260509140010 78 86 0.0 1.0 0.00 0.00 0.00 23 993.8
20260509134508 75 86 0.0 2.0 0.00 0.00 0.00 24 993.7
20260509133007 74 92 0.0 2.0 0.00 0.00 0.00 25 993.5
20260509131504 73 168 0.0 0.0 0.00 0.00 0.00 26 993.2
20260509130005 72 168 0.0 0.0 0.00 0.00 0.00 26 993.0
20260509124613 71 148 0.0 1.0 0.00 0.00 0.00 26 992.9
20260509123058 72 207 1.0 4.0 0.00 0.00 0.00 26 992.8
20260509121554 73 150 1.0 5.0 0.00 0.00 0.00 25 992.6
20260509120051 74 157 1.0 5.0 0.00 0.00 0.00 24 992.4
20260509114555 76 209 2.0 7.0 0.00 0.00 0.00 23 992.2
20260509113047 77 167 3.0 9.0 0.00 0.00 0.00 24 992.2
20260509111546 78 151 2.0 6.0 0.00 0.00 0.00 25 992.1
20260509110048 78 142 3.0 6.0 0.00 0.00 0.00 26 992.1
20260509104544 76 337 0.0 1.0 0.00 0.00 0.00 24 992.0
20260509103042 76 332 0.0 2.0 0.00 0.00 0.00 26 992.0
20260509101540 77 149 0.0 2.0 0.00 0.00 0.00 26 992.0
20260509100039 78 294 0.0 2.0 0.00 0.00 0.00 24 992.0
20260509094537 79 309 0.0 5.0 0.00 0.00 0.00 22 991.9
20260509093031 83 111 1.0 6.0 0.00 0.00 0.00 19 991.8
20260509091534 83 101 2.0 4.0 0.00 0.00 0.00 18 991.9
20260509090027 84 114 0.0 4.0 0.00 0.00 0.00 18 991.9
20260509084528 85 105 3.0 6.0 0.00 0.00 0.00 17 991.9
20260509083024 86 93 2.0 5.0 0.00 0.00 0.00 17 991.9
20260509081522 86 80 1.0 2.0 0.00 0.00 0.00 17 992.0
20260509080025 86 136 1.0 6.0 0.00 0.00 0.00 19 992.0
20260509074520 85 126 2.0 5.0 0.00 0.00 0.00 18 992.0
20260509073036 86 92 1.0 3.0 0.00 0.00 0.00 17 991.9
20260509071516 86 140 1.0 4.0 0.00 0.00 0.00 16 992.0
20260509070014 87 153 0.0 6.0 0.00 0.00 0.00 16 992.1
20260509064512 88 134 2.0 6.0 0.00 0.00 0.00 15 991.9
20260509063012 87 121 3.0 7.0 0.00 0.00 0.00 15 991.6
20260509061511 88 132 1.0 3.0 0.00 0.00 0.00 14 991.7
20260509060015 89 119 2.0 4.0 0.00 0.00 0.00 13 991.5
20260509054520 89 172 1.0 5.0 0.00 0.00 0.00 14 991.5
20260509053013 90 141 0.0 4.0 0.00 0.00 0.00 14 991.6
20260509051511 90 111 0.0 3.0 0.00 0.00 0.00 15 991.6
20260509050012 90 123 1.0 5.0 0.00 0.00 0.00 15 991.5
20260509044513 90 144 0.0 2.0 0.00 0.00 0.00 16 991.3
20260509043016 91 157 0.0 4.0 0.00 0.00 0.00 15 991.2
20260509041508 90 138 2.0 5.0 0.00 0.00 0.00 16 991.1
20260509040007 91 159 0.0 2.0 0.00 0.00 0.00 16 990.9
20260509034512 92 146 0.0 2.0 0.00 0.00 0.00 16 990.6
20260509033009 92 146 0.0 2.0 0.00 0.00 0.00 16 990.5
20260509031508 94 160 0.0 1.0 0.00 0.00 0.00 17 990.2
20260509030007 95 165 2.0 6.0 0.00 0.00 0.00 14 990.0
20260509024506 96 162 1.0 4.0 0.00 0.00 0.00 15 989.8
20260509023012 98 232 0.0 6.0 0.00 0.00 0.00 14 989.6
20260509021515 100 227 3.0 8.0 0.00 0.00 0.00 13 989.5
20260509020003 103 194 4.0 10.0 0.00 0.00 0.00 11 989.4
20260509014501 104 151 2.0 6.0 0.00 0.00 0.00 11 989.3
20260509013107 104 153 4.0 8.0 0.00 0.00 0.00 10 989.3
20260509011600 104 206 3.0 9.0 0.00 0.00 0.00 10 989.4
20260509010059 105 157 7.0 14.0 0.00 0.00 0.00 10 989.4
20260509004613 106 181 3.0 10.0 0.00 0.00 0.00 10 989.6
20260509003059 105 192 4.0 10.0 0.00 0.00 0.00 10 989.7
20260509001554 105 145 5.0 15.0 0.00 0.00 0.00 10 989.8
20260509000052 105 156 6.0 16.0 0.00 0.00 0.00 10 989.9
20260508234551 106 169 6.0 13.0 0.00 0.00 0.00 11 990.0
20260508233058 104 105 6.0 13.0 0.00 0.00 0.00 11 990.0
20260508231546 105 155 4.0 14.0 0.00 0.00 0.00 10 990.2
20260508230054 104 78 8.0 11.0 0.00 0.00 0.00 11 990.3
20260508224542 104 140 2.0 7.0 0.00 0.00 0.00 11 990.7
20260508223041 106 103 0.0 4.0 0.00 0.00 0.00 12 990.9
20260508221540 106 157 2.0 8.0 0.00 0.00 0.00 10 991.3
20260508220034 103 136 2.0 6.0 0.00 0.00 0.00 12 991.4
20260508214532 103 79 2.0 7.0 0.00 0.00 0.00 11 991.7
20260508213031 103 74 5.0 8.0 0.00 0.00 0.00 12 992.0
20260508211532 103 113 2.0 9.0 0.00 0.00 0.00 11 992.3
20260508210024 102 96 0.0 6.0 0.00 0.00 0.00 12 992.6
20260508204523 101 88 3.0 7.0 0.00 0.00 0.00 13 992.8
20260508203021 102 59 3.0 7.0 0.00 0.00 0.00 13 993.1
20260508201518 101 297 1.0 7.0 0.00 0.00 0.00 14 993.3
20260508200016 101 202 1.0 7.0 0.00 0.00 0.00 14 993.6
20260508194516 100 261 3.0 7.0 0.00 0.00 0.00 15 993.7
20260508193011 99 276 0.0 4.0 0.00 0.00 0.00 17 993.9
20260508191509 99 234 0.0 4.0 0.00 0.00 0.00 17 994.1
20260508190008 96 314 1.0 7.0 0.00 0.00 0.00 18 994.4
20260508184504 96 234 3.0 8.0 0.00 0.00 0.00 19 994.6
20260508183005 94 140 0.0 4.0 0.00 0.00 0.00 20 994.9
20260508181607 93 330 0.0 5.0 0.00 0.00 0.00 21 995.1